カタログに戻る

YAOGAN-30 S

運用中軍事VLEO
NORAD 45461·PAYLOAD·🇨🇳 China

打ち上げ Mar 24, 2020 から Xichang Satellite Launch Center

Loading…

次のパス (今後24時間)

TLE

最新Source: Space-Track

元期: Sep 14, 2026, 15:02 UTC

1 45461U 20021B   26257.62682889  .00002144  00000-0  15813-3 0  9998
2 45461  34.9953  25.1954 0003087 283.4602  76.5763 15.03037750353954

AllMySatでYAOGAN-30 Sをリアルタイム追跡

Download on the App Store